Regional Weather Roundup
Issued by NWS Upton, NY

Home | Current Version | Previous Version | Text Only | Print | Product List | Glossary On
Versions: 1 2 3 4 5 6 7 8 9 10 11 12 13 14 15 16 17 18 19 20 21 22 23 24 25 26 27 28 29 30 31 32 33 34 35 36 37 38 39 40 41 42 43 44 45 46 47 48 49 50
000
ASUS41 KOKX 231305
RWROKX

REGIONAL WEATHER ROUNDUP
NATIONAL WEATHER SERVICE NEW YORK NY
900 AM EDT TUE SEP 23 2014

NOTE: "FAIR" INDICATES FEW OR NO CLOUDS BELOW 12,000 FEET WITH NO
SIGNIFICANT WEATHER AND/OR OBSTRUCTIONS TO VISIBILITY.

NYZ071-072-176-178-NJZ106-104-231400-
NEW YORK CITY METRO AREA


CITY           SKY/WX    TMP DP  RH WIND       PRES   REMARKS
CENTRAL PARK   SUNNY     55  40  56 CALM      30.34R
LAGUARDIA APRT MOSUNNY   57  40  52 CALM      30.31R
KENNEDY INTL   MOSUNNY   59  42  53 CALM      30.32R
NEWARK/LIBERTY MOSUNNY   57  41  55 N3        30.32R
BRNX BOT. GARD   N/A     57  41  54 SW5       30.32R
TETERBORO      SUNNY     56  41  57 NW3       30.31R
$$

NYZ177-179-078>081-231400-
LONG ISLAND NEW YORK

CITY           SKY/WX    TMP DP  RH WIND       PRES   REMARKS
FARMINGDALE    SUNNY     57  44  62 N7        30.31R
ISLIP          MOSUNNY   58  44  60 N13       30.29R
SHIRLEY        SUNNY     58  44  60 N13       30.31R
WESTHAMPTON    SUNNY     60  43  53 N6        30.31R
MONTAUK POINT    N/A     58  39  49 N6        30.31R
$$

NYZ052-065-067-231400-
HUDSON VALLEY

CITY           SKY/WX    TMP DP  RH WIND       PRES   REMARKS
WHITE PLAINS   SUNNY     55  42  61 NW8       30.31R
NEWBURGH       SUNNY     50  41  71 W6        30.33R
MONTGOMERY     MOSUNNY   51  43  74 SW3       30.31R
POUGHKEEPSIE   SUNNY     51  44  77 CALM      30.31R
ALBANY         MOSUNNY   53  44  71 W7        30.29R
$$

NJZ001-105-106-008-010-013-015-019>022-104-231400-
NEW JERSEY

CITY           SKY/WX    TMP DP  RH WIND       PRES   REMARKS
NEWARK/LIBERTY MOSUNNY   57  41  55 N3        30.32R
TETERBORO      SUNNY     56  41  57 NW3       30.31R
CALDWELL       SUNNY     53  41  63 CALM      30.33R
MORRISTOWN     SUNNY     54  45  71 CALM      30.32R
SOMERVILLE     SUNNY     53  44  71 N3        30.31R
LINDEN         FAIR      59  45  59 N3        30.34R
SUSSEX         SUNNY     54  46  74 CALM      30.32R
ANDOVER          N/A     53  44  71 CALM      30.32R
TRENTON        SUNNY     54  42  64 N8        30.32R
MILLVILLE      SUNNY     55  43  63 N7        30.32R
ATLANTIC CITY  SUNNY     52  44  74 N8        30.32R
WRIGHTSTOWN    SUNNY     55  44  67 N8        30.31R
TOMS RIVER     SUNNY     52  43  71 N5        30.32R
BELMAR         SUNNY     54  41  62 NW8       30.31R
$$

PAZ047>061-062-071-231400-
EASTERN PENNSYLVANIA

CITY           SKY/WX    TMP DP  RH WIND       PRES   REMARKS
PHILADELPHIA   MOSUNNY   57  42  57 N8        30.33R
ALLENTOWN      SUNNY     52  42  69 CALM      30.33R
SCRANTON       SUNNY     51  41  68 CALM      30.33R
$$

CTZ002-004>006-009-010-012-RIZ004-006-007-MAZ004-011-015-231400-
SOUTHERN NEW ENGLAND
 IN CT

CITY           SKY/WX    TMP DP  RH WIND       PRES   REMARKS
BRADLEY INTL   MOSUNNY   56  41  57 W6        30.27R
HARTFORD       SUNNY     55  42  61 SW9       30.29R
DANBURY        SUNNY     54  43  66 CALM      30.31R
WTRBRY/OXFORD  NOT AVBL
BRIDGEPORT     SUNNY     56  45  66 NW7       30.31R
MERIDEN        SUNNY     52  45  77 CALM      30.30R
NEW HAVEN      MOSUNNY   56  44  64 NW7       30.30R
CHESTER        FAIR      54  43  66 NW3       30.30R
GROTON         SUNNY     56  43  61 NW3       30.29R
WILLIMANTIC    SUNNY     45  42  89 CALM      30.29S

 IN RI

CITY           SKY/WX    TMP DP  RH WIND       PRES   REMARKS
PROVIDENCE     MOSUNNY   55  42  61 W7        30.29R
BLOCK ISLAND   SUNNY     57  39  51 N6        30.29R
WESTERLY       SUNNY     56  42  59 VRB3      30.30R

 IN MA

CITY           SKY/WX    TMP DP  RH WIND       PRES   REMARKS
BOSTON         MOSUNNY   55  39  54 SW5       30.26R
WORCESTER      SUNNY     49  39  68 W6        30.26R
WESTFIELD      SUNNY     50  42  74 CALM      30.27R
PROVINCETOWN   SUNNY     55  39  54 N9        30.27R
NANTUCKET      SUNNY     59  42  53 N12       30.26R
$$

ANZ330-335-338-340-345-350-353-355-231400-
COASTAL MARINE OBSERVATIONS


STATION/POSITION TIME  SKY/WX   TEMP    WIND        PRES    VSBY  WAVE
                                AIR SEA DIR/SP/G                  HT/PER
                 (UTC)          (F)     (DEG/KT/KT) (MB)    (MI)  (FT/S)
NY HARB ENTRANCE 1300            59 69   60/  8/ 12 1026.6          2/ 8
4S FIRE IS       1300               69                N/A           2/ 8
20S FIRE ISLAND  1300            58 68   20/ 14/ 16 1026.0          3/ 8
23SW MTP         1300                                 N/A           3/ 8
HUDSON CANYON    1300            60 70   10/ 12/ 16 1025.2          4/ 6
EXECUTION ROCKS  1300            55 69  300/  4/  6   N/A
WESTERN LI SOUND 1300            55     340/  4/  8   N/A           0
CENTRAL LI SOUND 1200            56 69  340/ 10/ 12   N/A           1
EASTERN LI SOUND 1200            62 67  340/  6/  8   N/A
ROBBINS REEF     1300            54     360/  5/  6 1025.4
$$


>>>>>>>>>>>>>>>>>>>>>>>>>>>> KEY <<<<<<<<<<<<<<<<<<<<<<<<<<<
>                                                          <
>     SKY/WX - SKY CONDITION/PRESENT WEATHER               <
>     TMP    - TEMPERATURE IN FAHRENHEIT                   <
>     DP     - DEWPOINT IN FAHRENHEIT                      <
>     RH     - RELATIVE HUMIDITY IN PERCENT                <
>     WIND   - DIRECTION AND SPEED IN MPH                  <
>     PRES   - MEAN SEA LEVEL PRESSURE IN INCHES OF HG     <
>     WCI    - WIND CHILL INDEX                            <
>     VSB    - VISIBILITY IN MILES                         <
>     HX     - HEAT INDEX                                  <
>     TC     - TEMPERATURE IN CELSIUS                      <
>     VRB    - VARIABLE WIND DIRECTION                     <
>                                                          <
>>>>>>>>>>>>>>>>>>>>>>>>>>>> KEY <<<<<<<<<<<<<<<<<<<<<<<<<<<





USA.gov is the U.S. government's official web portal to all federal, state and local government web resources and services.